Time,TemperatureF,DewpointF,PressureIn,WindDirection,WindDirectionDegrees,WindSpeedMPH,WindSpeedGustMPH,Humidity,HourlyPrecipIn,Conditions,Clouds,dailyrainin,SoftwareType,DateUTC
2013-09-04 00:02:00,61.2,55.6,29.89,South,180,2.0,4.0,82,0.00,,,0.00,meteohub,2013-09-04 05:02:00,
2013-09-04 00:07:00,61.0,55.4,29.90,South,180,3.0,4.0,82,0.00,,,0.00,meteohub,2013-09-04 05:07:00,
2013-09-04 00:12:00,61.0,55.4,29.90,South,180,2.0,3.0,82,0.00,,,0.00,meteohub,2013-09-04 05:12:00,
2013-09-04 00:17:00,61.0,55.4,29.90,South,180,4.0,4.0,82,0.00,,,0.00,meteohub,2013-09-04 05:17:00,
2013-09-04 00:22:00,61.2,55.6,29.90,South,180,4.0,4.0,82,0.00,,,0.00,meteohub,2013-09-04 05:22:00,
2013-09-04 00:28:00,61.2,55.9,29.90,South,180,4.0,4.0,83,0.00,,,0.00,meteohub,2013-09-04 05:28:00,
2013-09-04 00:33:00,61.2,55.9,29.91,South,180,4.0,4.0,83,0.00,,,0.00,meteohub,2013-09-04 05:33:00,
2013-09-04 00:38:00,61.2,55.9,29.91,SE,135,3.0,4.0,83,0.00,,,0.00,meteohub,2013-09-04 05:38:00,
2013-09-04 00:43:00,61.2,55.9,29.91,South,180,3.0,4.0,83,0.00,,,0.00,meteohub,2013-09-04 05:43:00,
2013-09-04 00:48:00,61.0,55.8,29.91,South,180,4.0,4.0,83,0.00,,,0.00,meteohub,2013-09-04 05:48:00,
2013-09-04 00:53:00,61.2,55.9,29.90,South,180,4.0,4.0,83,0.00,,,0.00,meteohub,2013-09-04 05:53:00,
2013-09-04 00:58:00,61.2,55.9,29.91,South,180,4.0,4.0,83,0.00,,,0.00,meteohub,2013-09-04 05:58:00,
2013-09-04 01:03:00,61.3,56.1,29.91,South,180,4.0,4.0,83,0.00,,,0.00,meteohub,2013-09-04 06:03:00,
2013-09-04 01:08:00,61.3,56.1,29.91,South,180,3.0,4.0,83,0.00,,,0.00,meteohub,2013-09-04 06:08:00,
2013-09-04 01:13:00,61.2,55.9,29.91,South,180,3.0,4.0,83,0.00,,,0.00,meteohub,2013-09-04 06:13:00,
2013-09-04 01:18:00,61.0,55.8,29.91,South,180,2.0,4.0,83,0.00,,,0.00,meteohub,2013-09-04 06:18:00,
2013-09-04 01:23:00,61.0,55.8,29.91,SE,135,3.0,4.0,83,0.00,,,0.00,meteohub,2013-09-04 06:23:00,
2013-09-04 01:28:00,61.0,55.8,29.91,SE,135,4.0,4.0,83,0.00,,,0.00,meteohub,2013-09-04 06:28:00,
2013-09-04 01:33:00,61.0,56.1,29.91,SE,135,3.0,3.0,84,0.00,,,0.00,meteohub,2013-09-04 06:33:00,
2013-09-04 01:38:00,61.2,56.3,29.91,SE,135,3.0,4.0,84,0.00,,,0.00,meteohub,2013-09-04 06:38:00,
2013-09-04 01:43:00,61.2,56.3,29.91,SE,135,3.0,4.0,84,0.00,,,0.00,meteohub,2013-09-04 06:43:00,
2013-09-04 01:49:00,61.3,56.5,29.91,South,180,4.0,4.0,84,0.00,,,0.00,meteohub,2013-09-04 06:49:00,
2013-09-04 01:54:00,61.3,56.5,29.91,SE,135,4.0,4.0,84,0.00,,,0.00,meteohub,2013-09-04 06:54:00,
2013-09-04 01:59:00,61.3,56.5,29.91,South,180,4.0,4.0,84,0.00,,,0.00,meteohub,2013-09-04 06:59:00,
2013-09-04 02:04:00,61.2,56.3,29.91,South,180,4.0,4.0,84,0.00,,,0.00,meteohub,2013-09-04 07:04:00,
2013-09-04 02:09:00,61.0,56.1,29.91,SE,135,3.0,5.0,84,0.00,,,0.00,meteohub,2013-09-04 07:09:00,
2013-09-04 02:14:00,60.8,55.9,29.92,SE,135,4.0,5.0,84,0.00,,,0.00,meteohub,2013-09-04 07:14:00,
2013-09-04 02:19:00,60.8,55.9,29.91,SE,135,3.0,5.0,84,0.00,,,0.00,meteohub,2013-09-04 07:19:00,
2013-09-04 02:24:00,60.8,55.9,29.91,SE,135,4.0,4.0,84,0.00,,,0.00,meteohub,2013-09-04 07:24:00,
2013-09-04 02:29:00,60.8,55.9,29.91,SE,135,4.0,4.0,84,0.00,,,0.00,meteohub,2013-09-04 07:29:00,
2013-09-04 02:34:00,60.8,56.3,29.91,South,180,4.0,4.0,85,0.00,,,0.00,meteohub,2013-09-04 07:34:00,
2013-09-04 02:39:00,60.6,56.5,29.91,South,180,4.0,4.0,86,0.00,,,0.00,meteohub,2013-09-04 07:39:00,
2013-09-04 02:44:00,60.6,56.5,29.91,South,180,4.0,4.0,86,0.00,,,0.00,meteohub,2013-09-04 07:44:00,
2013-09-04 02:49:00,60.4,56.3,29.92,SE,135,4.0,4.0,86,0.00,,,0.00,meteohub,2013-09-04 07:49:00,
2013-09-04 02:54:00,60.3,56.1,29.91,SE,135,3.0,4.0,86,0.00,,,0.00,meteohub,2013-09-04 07:54:00,
2013-09-04 02:59:00,60.3,56.1,29.92,SE,135,3.0,4.0,86,0.00,,,0.00,meteohub,2013-09-04 07:59:00,
2013-09-04 03:04:00,60.3,56.1,29.92,SE,135,3.0,4.0,86,0.00,,,0.00,meteohub,2013-09-04 08:04:00,
2013-09-04 03:09:00,60.4,56.3,29.92,SE,135,3.0,3.0,86,0.00,,,0.00,meteohub,2013-09-04 08:09:00,
2013-09-04 03:14:00,60.6,56.5,29.92,SE,135,3.0,3.0,86,0.00,,,0.00,meteohub,2013-09-04 08:14:00,
2013-09-04 03:20:00,60.8,56.3,29.92,SE,135,3.0,3.0,85,0.00,,,0.00,meteohub,2013-09-04 08:20:00,
2013-09-04 03:25:00,61.0,56.5,29.92,SE,135,3.0,3.0,85,0.00,,,0.00,meteohub,2013-09-04 08:25:00,
2013-09-04 03:30:00,61.0,56.8,29.92,South,180,4.0,4.0,86,0.00,,,0.00,meteohub,2013-09-04 08:30:00,
2013-09-04 03:35:00,61.0,56.8,29.92,SE,135,4.0,4.0,86,0.00,,,0.00,meteohub,2013-09-04 08:35:00,
2013-09-04 03:40:00,60.8,56.7,29.92,SE,135,4.0,4.0,86,0.00,,,0.00,meteohub,2013-09-04 08:40:00,
2013-09-04 03:45:00,60.6,56.7,29.92,SE,135,4.0,4.0,87,0.00,,,0.00,meteohub,2013-09-04 08:45:00,
2013-09-04 03:50:00,60.4,56.5,29.92,SE,135,4.0,4.0,87,0.00,,,0.00,meteohub,2013-09-04 08:50:00,
2013-09-04 03:55:00,60.3,56.3,29.92,SSE,158,4.0,4.0,87,0.00,,,0.00,meteohub,2013-09-04 08:55:00,
2013-09-04 04:00:00,60.1,55.9,29.92,SE,135,4.0,4.0,86,0.00,,,0.00,meteohub,2013-09-04 09:00:00,
2013-09-04 04:05:00,59.9,55.9,29.92,SE,135,4.0,4.0,87,0.00,,,0.00,meteohub,2013-09-04 09:05:00,
2013-09-04 04:10:00,59.7,55.6,29.92,South,180,3.0,4.0,86,0.00,,,0.00,meteohub,2013-09-04 09:10:00,
2013-09-04 04:15:00,59.7,55.8,29.92,South,180,2.0,4.0,87,0.00,,,0.00,meteohub,2013-09-04 09:15:00,
2013-09-04 04:20:00,59.7,55.8,29.93,SE,135,2.0,4.0,87,0.00,,,0.00,meteohub,2013-09-04 09:20:00,
2013-09-04 04:25:00,59.7,55.8,29.93,SE,135,2.0,3.0,87,0.00,,,0.00,meteohub,2013-09-04 09:25:00,
2013-09-04 04:30:00,59.9,55.9,29.93,SE,135,2.0,2.0,87,0.00,,,0.00,meteohub,2013-09-04 09:30:00,
2013-09-04 04:35:00,60.1,56.1,29.93,East,90,2.0,2.0,87,0.00,,,0.00,meteohub,2013-09-04 09:35:00,
2013-09-04 04:40:00,60.4,56.5,29.93,SE,135,2.0,2.0,87,0.00,,,0.00,meteohub,2013-09-04 09:40:00,
2013-09-04 04:45:00,60.6,56.7,29.93,East,90,3.0,3.0,87,0.00,,,0.00,meteohub,2013-09-04 09:45:00,
2013-09-04 04:51:00,60.6,56.7,29.93,East,90,2.0,3.0,87,0.00,,,0.00,meteohub,2013-09-04 09:51:00,
2013-09-04 04:56:00,60.4,56.5,29.93,SE,135,2.0,3.0,87,0.00,,,0.00,meteohub,2013-09-04 09:56:00,
2013-09-04 05:01:00,60.4,56.5,29.93,SE,135,2.0,3.0,87,0.00,,,0.00,meteohub,2013-09-04 10:01:00,
2013-09-04 05:06:00,60.4,56.5,29.93,SE,135,2.0,3.0,87,0.00,,,0.00,meteohub,2013-09-04 10:06:00,
2013-09-04 05:11:00,60.4,56.8,29.93,SE,135,3.0,3.0,88,0.00,,,0.00,meteohub,2013-09-04 10:11:00,
2013-09-04 05:16:00,60.4,56.8,29.93,SE,135,3.0,3.0,88,0.00,,,0.00,meteohub,2013-09-04 10:16:00,
2013-09-04 05:21:00,60.4,56.8,29.93,SE,135,3.0,4.0,88,0.00,,,0.00,meteohub,2013-09-04 10:21:00,
2013-09-04 05:26:00,60.4,56.8,29.93,SE,135,3.0,4.0,88,0.00,,,0.00,meteohub,2013-09-04 10:26:00,
2013-09-04 05:31:00,60.4,56.8,29.93,SE,135,2.0,4.0,88,0.00,,,0.00,meteohub,2013-09-04 10:31:00,
2013-09-04 05:36:00,60.4,56.8,29.93,SE,135,3.0,3.0,88,0.00,,,0.00,meteohub,2013-09-04 10:36:00,
2013-09-04 05:41:00,60.3,56.7,29.94,SE,135,3.0,3.0,88,0.00,,,0.00,meteohub,2013-09-04 10:41:00,
2013-09-04 05:46:00,60.3,56.7,29.94,South,180,3.0,4.0,88,0.00,,,0.00,meteohub,2013-09-04 10:46:00,
2013-09-04 05:51:00,59.9,56.3,29.94,SE,135,2.0,4.0,88,0.00,,,0.00,meteohub,2013-09-04 10:51:00,
2013-09-04 05:56:00,59.7,56.1,29.94,SE,135,3.0,4.0,88,0.00,,,0.00,meteohub,2013-09-04 10:56:00,
2013-09-04 06:01:00,59.5,55.9,29.94,South,180,3.0,3.0,88,0.00,,,0.00,meteohub,2013-09-04 11:01:00,
2013-09-04 06:06:00,59.5,55.9,29.94,SE,135,3.0,3.0,88,0.00,,,0.00,meteohub,2013-09-04 11:06:00,
2013-09-04 06:11:00,59.5,55.9,29.94,SE,135,3.0,3.0,88,0.00,,,0.00,meteohub,2013-09-04 11:11:00,
2013-09-04 06:17:00,59.7,56.1,29.94,SE,135,4.0,4.0,88,0.00,,,0.00,meteohub,2013-09-04 11:17:00,
2013-09-04 06:22:00,59.9,56.3,29.94,SE,135,2.0,4.0,88,0.00,,,0.00,meteohub,2013-09-04 11:22:00,
2013-09-04 06:27:00,59.9,56.3,29.94,SSE,158,2.0,4.0,88,0.00,,,0.00,meteohub,2013-09-04 11:27:00,
2013-09-04 06:32:00,59.9,56.3,29.95,SE,135,3.0,4.0,88,0.00,,,0.00,meteohub,2013-09-04 11:32:00,
2013-09-04 06:37:00,59.9,56.3,29.95,SE,135,3.0,3.0,88,0.00,,,0.00,meteohub,2013-09-04 11:37:00,
2013-09-04 06:42:00,59.9,56.3,29.95,SE,135,2.0,4.0,88,0.00,,,0.00,meteohub,2013-09-04 11:42:00,
2013-09-04 06:47:00,59.9,56.7,29.95,South,180,2.0,4.0,89,0.00,,,0.00,meteohub,2013-09-04 11:47:00,
2013-09-04 06:52:00,59.9,56.3,29.96,SE,135,3.0,3.0,88,0.00,,,0.00,meteohub,2013-09-04 11:52:00,
2013-09-04 06:57:00,59.9,56.7,29.95,South,180,3.0,3.0,89,0.00,,,0.00,meteohub,2013-09-04 11:57:00,
2013-09-04 07:02:00,60.1,56.8,29.96,South,180,3.0,3.0,89,0.00,,,0.00,meteohub,2013-09-04 12:02:00,
2013-09-04 07:07:00,60.1,56.8,29.96,South,180,3.0,3.0,89,0.00,,,0.00,meteohub,2013-09-04 12:07:00,
2013-09-04 07:12:00,61.2,57.9,29.96,South,180,4.0,4.0,89,0.00,,,0.00,meteohub,2013-09-04 12:12:00,
2013-09-04 07:17:00,61.5,58.3,29.95,South,180,2.0,4.0,89,0.00,,,0.00,meteohub,2013-09-04 12:17:00,
2013-09-04 07:22:00,63.0,59.4,29.96,South,180,2.0,4.0,88,0.00,,,0.00,meteohub,2013-09-04 12:22:00,
2013-09-04 07:27:00,64.4,61.2,29.95,South,180,3.0,4.0,89,0.00,,,0.00,meteohub,2013-09-04 12:27:00,
2013-09-04 07:32:00,64.9,61.3,29.96,NE,45,2.0,2.0,88,0.00,,,0.00,meteohub,2013-09-04 12:32:00,
2013-09-04 07:38:00,65.7,62.1,29.96,South,180,0.0,3.0,88,0.00,,,0.00,meteohub,2013-09-04 12:38:00,
2013-09-04 07:43:00,67.8,63.9,29.96,South,180,1.0,3.0,87,0.00,,,0.00,meteohub,2013-09-04 12:43:00,
2013-09-04 07:48:00,70.0,65.3,29.96,South,180,2.0,2.0,85,0.00,,,0.00,meteohub,2013-09-04 12:48:00,
2013-09-04 07:53:00,70.5,65.1,29.96,NE,45,0.0,2.0,83,0.00,,,0.00,meteohub,2013-09-04 12:53:00,
2013-09-04 07:58:00,69.1,63.3,29.97,NE,45,3.0,3.0,82,0.00,,,0.00,meteohub,2013-09-04 12:58:00,
2013-09-04 08:03:00,68.0,61.9,29.97,NE,45,2.0,3.0,81,0.00,,,0.00,meteohub,2013-09-04 13:03:00,
2013-09-04 08:08:00,67.1,61.7,29.97,NE,45,3.0,3.0,83,0.00,,,0.00,meteohub,2013-09-04 13:08:00,
2013-09-04 08:13:00,66.6,61.2,29.97,NE,45,2.0,4.0,83,0.00,,,0.00,meteohub,2013-09-04 13:13:00,
2013-09-04 08:19:00,66.4,61.0,29.98,NNE,23,4.0,4.0,83,0.00,,,0.00,meteohub,2013-09-04 13:19:00,
2013-09-04 08:24:00,65.8,60.8,29.98,North,0,12.0,13.0,84,0.00,,,0.00,meteohub,2013-09-04 13:24:00,
2013-09-04 08:29:00,65.5,60.8,29.98,NE,45,7.0,15.0,85,0.00,,,0.00,meteohub,2013-09-04 13:29:00,
2013-09-04 08:34:00,65.7,61.0,29.98,NE,45,4.0,15.0,85,0.00,,,0.00,meteohub,2013-09-04 13:34:00,
2013-09-04 08:39:00,65.8,61.5,29.98,NE,45,7.0,15.0,86,0.00,,,0.00,meteohub,2013-09-04 13:39:00,
2013-09-04 08:44:00,66.4,61.7,29.98,NE,45,8.0,11.0,85,0.00,,,0.00,meteohub,2013-09-04 13:44:00,
2013-09-04 08:49:00,66.7,62.1,29.97,NE,45,7.0,9.0,85,0.00,,,0.00,meteohub,2013-09-04 13:49:00,
2013-09-04 08:54:00,67.1,62.4,29.98,NE,45,4.0,9.0,85,0.00,,,0.00,meteohub,2013-09-04 13:54:00,
2013-09-04 08:59:00,67.6,63.0,29.98,North,0,3.0,8.0,85,0.00,,,0.00,meteohub,2013-09-04 13:59:00,
2013-09-04 09:04:00,68.4,63.7,29.98,NE,45,4.0,8.0,85,0.00,,,0.00,meteohub,2013-09-04 14:04:00,
2013-09-04 09:09:00,68.9,64.2,29.98,NE,45,5.0,8.0,85,0.00,,,0.00,meteohub,2013-09-04 14:09:00,
2013-09-04 09:14:00,69.1,64.4,29.98,North,0,6.0,8.0,85,0.00,,,0.00,meteohub,2013-09-04 14:14:00,
2013-09-04 09:19:00,69.4,64.4,29.98,NE,45,4.0,8.0,84,0.00,,,0.00,meteohub,2013-09-04 14:19:00,
2013-09-04 09:24:00,69.8,64.4,29.98,NE,45,4.0,8.0,83,0.00,,,0.00,meteohub,2013-09-04 14:24:00,
2013-09-04 09:29:00,70.3,64.9,29.98,NE,45,2.0,8.0,83,0.00,,,0.00,meteohub,2013-09-04 14:29:00,
2013-09-04 09:34:00,71.1,65.7,29.98,NE,45,4.0,8.0,83,0.00,,,0.00,meteohub,2013-09-04 14:34:00,
2013-09-04 09:40:00,72.0,66.2,29.98,NE,45,0.0,6.0,82,0.00,,,0.00,meteohub,2013-09-04 14:40:00,
2013-09-04 09:45:00,72.7,66.9,29.97,SE,135,2.0,4.0,82,0.00,,,0.00,meteohub,2013-09-04 14:45:00,
2013-09-04 09:50:00,74.1,68.5,29.98,South,180,3.0,4.0,83,0.00,,,0.00,meteohub,2013-09-04 14:50:00,
2013-09-04 09:55:00,75.7,69.8,29.98,SE,135,0.0,3.0,82,0.00,,,0.00,meteohub,2013-09-04 14:55:00,
2013-09-04 10:00:00,76.3,70.0,29.97,South,180,4.0,4.0,81,0.00,,,0.00,meteohub,2013-09-04 15:00:00,
2013-09-04 10:05:00,76.8,70.5,29.98,SE,135,3.0,4.0,81,0.00,,,0.00,meteohub,2013-09-04 15:05:00,
2013-09-04 10:10:00,77.9,70.5,29.98,SE,135,2.0,4.0,78,0.00,,,0.00,meteohub,2013-09-04 15:10:00,
2013-09-04 10:15:00,77.9,70.2,29.98,NE,45,4.0,4.0,77,0.00,,,0.00,meteohub,2013-09-04 15:15:00,
2013-09-04 10:20:00,77.2,69.1,29.99,North,0,5.0,5.0,76,0.00,,,0.00,meteohub,2013-09-04 15:20:00,
2013-09-04 10:25:00,76.6,68.5,29.99,North,0,6.0,7.0,76,0.00,,,0.00,meteohub,2013-09-04 15:25:00,
2013-09-04 10:30:00,76.6,68.5,29.99,NE,45,7.0,7.0,76,0.00,,,0.00,meteohub,2013-09-04 15:30:00,
2013-09-04 10:35:00,76.6,68.2,29.99,North,0,5.0,8.0,75,0.00,,,0.00,meteohub,2013-09-04 15:35:00,
2013-09-04 10:40:00,76.6,68.2,29.99,South,180,4.0,8.0,75,0.00,,,0.00,meteohub,2013-09-04 15:40:00,
2013-09-04 10:45:00,77.2,68.2,29.98,NE,45,5.0,8.0,74,0.00,,,0.00,meteohub,2013-09-04 15:45:00,
2013-09-04 10:51:00,77.4,68.0,29.99,North,0,7.0,8.0,73,0.00,,,0.00,meteohub,2013-09-04 15:51:00,
2013-09-04 10:56:00,77.7,68.0,29.99,North,0,4.0,8.0,72,0.00,,,0.00,meteohub,2013-09-04 15:56:00,
2013-09-04 11:01:00,78.4,68.7,29.99,NE,45,4.0,8.0,72,0.00,,,0.00,meteohub,2013-09-04 16:01:00,
2013-09-04 11:06:00,79.5,69.3,29.99,East,90,4.0,7.0,71,0.00,,,0.00,meteohub,2013-09-04 16:06:00,
2013-09-04 11:11:00,80.6,70.0,29.99,SE,135,4.0,5.0,70,0.00,,,0.00,meteohub,2013-09-04 16:11:00,
2013-09-04 11:16:00,81.3,70.2,29.99,East,90,3.0,5.0,69,0.00,,,0.00,meteohub,2013-09-04 16:16:00,
2013-09-04 11:21:00,81.3,70.2,29.99,East,90,3.0,5.0,69,0.00,,,0.00,meteohub,2013-09-04 16:21:00,
2013-09-04 11:26:00,82.9,70.3,29.99,SE,135,3.0,5.0,66,0.00,,,0.00,meteohub,2013-09-04 16:26:00,
2013-09-04 11:31:00,83.1,70.2,29.99,SE,135,3.0,4.0,65,0.00,,,0.00,meteohub,2013-09-04 16:31:00,
2013-09-04 11:36:00,82.6,69.1,29.98,SW,225,2.0,5.0,64,0.00,,,0.00,meteohub,2013-09-04 16:36:00,
2013-09-04 11:41:00,82.2,69.3,29.99,NW,315,2.0,6.0,65,0.00,,,0.00,meteohub,2013-09-04 16:41:00,
2013-09-04 11:46:00,82.6,68.7,29.99,NW,315,2.0,6.0,63,0.00,,,0.00,meteohub,2013-09-04 16:46:00,
2013-09-04 11:52:00,83.5,70.0,29.98,SE,135,4.0,6.0,64,0.00,,,0.00,meteohub,2013-09-04 16:52:00,
2013-09-04 11:57:00,84.6,70.2,29.98,East,90,2.0,4.0,62,0.00,,,0.00,meteohub,2013-09-04 16:57:00,
2013-09-04 12:02:00,84.9,70.5,29.98,SE,135,2.0,4.0,62,0.00,,,0.00,meteohub,2013-09-04 17:02:00,
2013-09-04 12:07:00,84.9,69.4,29.99,SE,135,3.0,6.0,60,0.00,,,0.00,meteohub,2013-09-04 17:07:00,
2013-09-04 12:12:00,84.4,69.4,29.99,East,90,3.0,6.0,61,0.00,,,0.00,meteohub,2013-09-04 17:12:00,
2013-09-04 12:17:00,84.9,70.0,29.99,East,90,4.0,6.0,61,0.00,,,0.00,meteohub,2013-09-04 17:17:00,
2013-09-04 12:22:00,85.5,69.4,29.98,South,180,4.0,6.0,59,0.00,,,0.00,meteohub,2013-09-04 17:22:00,
2013-09-04 12:27:00,86.4,69.8,29.98,South,180,8.0,8.0,58,0.00,,,0.00,meteohub,2013-09-04 17:27:00,
2013-09-04 12:32:00,86.9,69.3,29.98,SE,135,3.0,8.0,56,0.00,,,0.00,meteohub,2013-09-04 17:32:00,
2013-09-04 12:37:00,87.4,69.3,29.98,West,270,2.0,8.0,55,0.00,,,0.00,meteohub,2013-09-04 17:37:00,
2013-09-04 12:42:00,87.8,68.5,29.98,NE,45,2.0,8.0,53,0.00,,,0.00,meteohub,2013-09-04 17:42:00,
2013-09-04 12:47:00,86.7,68.0,29.98,East,90,2.0,4.0,54,0.00,,,0.00,meteohub,2013-09-04 17:47:00,
2013-09-04 12:52:00,88.2,69.4,29.98,South,180,5.0,5.0,54,0.00,,,0.00,meteohub,2013-09-04 17:52:00,
2013-09-04 12:57:00,88.2,68.4,29.97,SE,135,6.0,6.0,52,0.00,,,0.00,meteohub,2013-09-04 17:57:00,
2013-09-04 13:02:00,88.2,68.4,29.97,East,90,5.0,6.0,52,0.00,,,0.00,meteohub,2013-09-04 18:02:00,
2013-09-04 13:07:00,89.4,70.0,29.97,SE,135,4.0,6.0,53,0.00,,,0.00,meteohub,2013-09-04 18:07:00,
2013-09-04 13:13:00,89.8,69.3,29.97,South,180,2.0,6.0,51,0.00,,,0.00,meteohub,2013-09-04 18:13:00,
2013-09-04 13:18:00,90.7,70.0,29.97,SSE,158,6.0,6.0,51,0.00,,,0.00,meteohub,2013-09-04 18:18:00,
2013-09-04 13:23:00,90.5,69.3,29.97,East,90,5.0,7.0,50,0.00,,,0.00,meteohub,2013-09-04 18:23:00,
2013-09-04 13:28:00,90.1,68.4,29.97,East,90,2.0,7.0,49,0.00,,,0.00,meteohub,2013-09-04 18:28:00,
2013-09-04 13:33:00,89.6,67.8,29.97,SE,135,2.0,7.0,49,0.00,,,0.00,meteohub,2013-09-04 18:33:00,
2013-09-04 13:38:00,89.6,67.8,29.97,NE,45,2.0,7.0,49,0.00,,,0.00,meteohub,2013-09-04 18:38:00,
2013-09-04 13:43:00,88.5,67.5,29.97,SE,135,5.0,6.0,50,0.00,,,0.00,meteohub,2013-09-04 18:43:00,
2013-09-04 13:48:00,89.4,68.9,29.97,South,180,4.0,5.0,51,0.00,,,0.00,meteohub,2013-09-04 18:48:00,
2013-09-04 13:53:00,90.1,68.9,29.97,SE,135,4.0,6.0,50,0.00,,,0.00,meteohub,2013-09-04 18:53:00,
2013-09-04 13:58:00,90.1,68.4,29.96,ENE,68,3.0,7.0,49,0.00,,,0.00,meteohub,2013-09-04 18:58:00,
2013-09-04 14:03:00,89.8,68.0,29.97,North,0,5.0,7.0,49,0.00,,,0.00,meteohub,2013-09-04 19:03:00,
2013-09-04 14:08:00,88.9,68.4,29.97,NE,45,5.0,5.0,51,0.00,,,0.00,meteohub,2013-09-04 19:08:00,
2013-09-04 14:13:00,88.0,66.9,29.97,NE,45,7.0,9.0,50,0.00,,,0.00,meteohub,2013-09-04 19:13:00,
2013-09-04 14:18:00,87.4,67.6,29.97,NE,45,9.0,9.0,52,0.00,,,0.00,meteohub,2013-09-04 19:18:00,
2013-09-04 14:24:00,86.9,67.1,29.96,East,90,8.0,9.0,52,0.00,,,0.00,meteohub,2013-09-04 19:24:00,
2013-09-04 14:29:00,86.2,66.6,29.96,NE,45,11.0,13.0,52,0.00,,,0.00,meteohub,2013-09-04 19:29:00,
2013-09-04 14:34:00,86.7,67.5,29.96,North,0,9.0,13.0,53,0.00,,,0.00,meteohub,2013-09-04 19:34:00,
2013-09-04 14:39:00,87.4,68.2,29.96,NE,45,8.0,13.0,53,0.00,,,0.00,meteohub,2013-09-04 19:39:00,
2013-09-04 14:44:00,87.3,68.0,29.96,SE,135,7.0,12.0,53,0.00,,,0.00,meteohub,2013-09-04 19:44:00,
2013-09-04 14:49:00,88.0,66.9,29.96,NE,45,9.0,12.0,50,0.00,,,0.00,meteohub,2013-09-04 19:49:00,
2013-09-04 14:54:00,86.7,66.4,29.96,NE,45,4.0,12.0,51,0.00,,,0.00,meteohub,2013-09-04 19:54:00,
2013-09-04 14:59:00,86.4,67.3,29.96,North,0,8.0,11.0,53,0.00,,,0.00,meteohub,2013-09-04 19:59:00,
2013-09-04 15:04:00,86.4,67.8,29.96,NE,45,9.0,11.0,54,0.00,,,0.00,meteohub,2013-09-04 20:04:00,
2013-09-04 15:09:00,85.6,67.6,29.96,NE,45,11.0,11.0,55,0.00,,,0.00,meteohub,2013-09-04 20:09:00,
2013-09-04 15:14:00,85.3,67.3,29.96,NE,45,10.0,11.0,55,0.00,,,0.00,meteohub,2013-09-04 20:14:00,
2013-09-04 15:19:00,85.6,67.6,29.96,NE,45,7.0,12.0,55,0.00,,,0.00,meteohub,2013-09-04 20:19:00,
2013-09-04 15:24:00,86.4,67.3,29.96,NE,45,10.0,12.0,53,0.00,,,0.00,meteohub,2013-09-04 20:24:00,
2013-09-04 15:29:00,86.5,67.5,29.96,NE,45,11.0,12.0,53,0.00,,,0.00,meteohub,2013-09-04 20:29:00,
2013-09-04 15:34:00,86.5,66.7,29.95,NE,45,9.0,11.0,52,0.00,,,0.00,meteohub,2013-09-04 20:34:00,
2013-09-04 15:40:00,86.7,67.5,29.95,NE,45,9.0,12.0,53,0.00,,,0.00,meteohub,2013-09-04 20:40:00,
2013-09-04 15:45:00,87.1,67.8,29.95,North,0,11.0,12.0,53,0.00,,,0.00,meteohub,2013-09-04 20:45:00,
2013-09-04 15:50:00,86.5,66.7,29.95,North,0,8.0,13.0,52,0.00,,,0.00,meteohub,2013-09-04 20:50:00,
2013-09-04 15:55:00,86.2,67.1,29.96,NE,45,11.0,13.0,53,0.00,,,0.00,meteohub,2013-09-04 20:55:00,
2013-09-04 16:00:00,85.6,67.1,29.96,NE,45,9.0,13.0,54,0.00,,,0.00,meteohub,2013-09-04 21:00:00,
2013-09-04 16:05:00,86.0,67.5,29.96,NE,45,9.0,13.0,54,0.00,,,0.00,meteohub,2013-09-04 21:05:00,
2013-09-04 16:10:00,85.6,67.1,29.95,NE,45,10.0,11.0,54,0.00,,,0.00,meteohub,2013-09-04 21:10:00,
2013-09-04 16:15:00,85.3,66.7,29.96,NE,45,7.0,11.0,54,0.00,,,0.00,meteohub,2013-09-04 21:15:00,
2013-09-04 16:20:00,85.1,66.6,29.96,NE,45,11.0,11.0,54,0.00,,,0.00,meteohub,2013-09-04 21:20:00,
2013-09-04 16:25:00,85.1,66.6,29.96,NE,45,7.0,11.0,54,0.00,,,0.00,meteohub,2013-09-04 21:25:00,
2013-09-04 16:30:00,85.3,66.7,29.96,North,0,8.0,13.0,54,0.00,,,0.00,meteohub,2013-09-04 21:30:00,
2013-09-04 16:35:00,85.6,67.1,29.96,NE,45,8.0,13.0,54,0.00,,,0.00,meteohub,2013-09-04 21:35:00,
2013-09-04 16:40:00,86.0,66.4,29.96,North,0,9.0,13.0,52,0.00,,,0.00,meteohub,2013-09-04 21:40:00,
2013-09-04 16:45:00,86.2,66.6,29.96,NE,45,7.0,9.0,52,0.00,,,0.00,meteohub,2013-09-04 21:45:00,
2013-09-04 16:50:00,86.2,66.6,29.96,NE,45,8.0,9.0,52,0.00,,,0.00,meteohub,2013-09-04 21:50:00,
2013-09-04 16:55:00,86.7,66.4,29.96,NE,45,10.0,11.0,51,0.00,,,0.00,meteohub,2013-09-04 21:55:00,
2013-09-04 17:01:00,86.9,66.0,29.96,NNE,23,8.0,11.0,50,0.00,,,0.00,meteohub,2013-09-04 22:01:00,
2013-09-04 17:06:00,86.9,66.0,29.96,NNE,23,8.0,11.0,50,0.00,,,0.00,meteohub,2013-09-04 22:06:00,
2013-09-04 17:11:00,87.4,66.6,29.96,NE,45,6.0,11.0,50,0.00,,,0.00,meteohub,2013-09-04 22:11:00,
2013-09-04 17:16:00,87.3,66.9,29.96,NNW,338,8.0,11.0,51,0.00,,,0.00,meteohub,2013-09-04 22:16:00,
2013-09-04 17:21:00,86.5,65.7,29.96,NE,45,7.0,11.0,50,0.00,,,0.00,meteohub,2013-09-04 22:21:00,
2013-09-04 17:26:00,86.9,66.6,29.96,NE,45,11.0,11.0,51,0.00,,,0.00,meteohub,2013-09-04 22:26:00,
2013-09-04 17:31:00,86.7,66.4,29.95,NE,45,7.0,11.0,51,0.00,,,0.00,meteohub,2013-09-04 22:31:00,
2013-09-04 17:36:00,86.7,66.4,29.96,NE,45,6.0,11.0,51,0.00,,,0.00,meteohub,2013-09-04 22:36:00,
2013-09-04 17:41:00,86.7,66.4,29.96,NE,45,8.0,11.0,51,0.00,,,0.00,meteohub,2013-09-04 22:41:00,
2013-09-04 17:46:00,86.7,66.4,29.96,NNE,23,8.0,9.0,51,0.00,,,0.00,meteohub,2013-09-04 22:46:00,
2013-09-04 17:51:00,86.7,66.4,29.96,NE,45,8.0,9.0,51,0.00,,,0.00,meteohub,2013-09-04 22:51:00,
2013-09-04 17:56:00,86.7,66.4,29.95,NE,45,8.0,9.0,51,0.00,,,0.00,meteohub,2013-09-04 22:56:00,
2013-09-04 18:01:00,86.5,66.2,29.95,NE,45,9.0,9.0,51,0.00,,,0.00,meteohub,2013-09-04 23:01:00,
2013-09-04 18:06:00,85.6,65.5,29.96,NE,45,8.0,11.0,51,0.00,,,0.00,meteohub,2013-09-04 23:06:00,
2013-09-04 18:11:00,85.1,65.5,29.95,NE,45,8.0,11.0,52,0.00,,,0.00,meteohub,2013-09-04 23:11:00,
2013-09-04 18:17:00,84.9,65.3,29.95,NE,45,8.0,11.0,52,0.00,,,0.00,meteohub,2013-09-04 23:17:00,
2013-09-04 18:22:00,84.2,65.3,29.96,NE,45,6.0,9.0,53,0.00,,,0.00,meteohub,2013-09-04 23:22:00,
2013-09-04 18:27:00,83.7,65.8,29.96,NE,45,4.0,9.0,55,0.00,,,0.00,meteohub,2013-09-04 23:27:00,
2013-09-04 18:32:00,83.1,65.8,29.96,NE,45,4.0,9.0,56,0.00,,,0.00,meteohub,2013-09-04 23:32:00,
2013-09-04 18:37:00,82.9,65.7,29.96,NE,45,4.0,8.0,56,0.00,,,0.00,meteohub,2013-09-04 23:37:00,
2013-09-04 18:42:00,82.8,66.0,29.96,NE,45,5.0,6.0,57,0.00,,,0.00,meteohub,2013-09-04 23:42:00,
2013-09-04 18:47:00,82.4,65.7,29.96,NE,45,5.0,6.0,57,0.00,,,0.00,meteohub,2013-09-04 23:47:00,
2013-09-04 18:52:00,81.9,66.2,29.96,NE,45,4.0,6.0,59,0.00,,,0.00,meteohub,2013-09-04 23:52:00,
2013-09-04 18:57:00,81.3,65.7,29.95,NE,45,5.0,5.0,59,0.00,,,0.00,meteohub,2013-09-04 23:57:00,
2013-09-04 19:02:00,81.1,66.0,29.95,East,90,4.0,5.0,60,0.00,,,0.00,meteohub,2013-09-05 00:02:00,
2013-09-04 19:07:00,81.1,66.0,29.95,East,90,4.0,5.0,60,0.00,,,0.00,meteohub,2013-09-05 00:07:00,
2013-09-04 19:12:00,80.2,66.0,29.96,NE,45,4.0,5.0,62,0.00,,,0.00,meteohub,2013-09-05 00:12:00,
2013-09-04 19:17:00,80.4,66.2,29.96,East,90,3.0,4.0,62,0.00,,,0.00,meteohub,2013-09-05 00:17:00,
2013-09-04 19:22:00,80.8,66.0,29.96,East,90,4.0,4.0,61,0.00,,,0.00,meteohub,2013-09-05 00:22:00,
2013-09-04 19:27:00,81.0,65.8,29.96,NE,45,4.0,4.0,60,0.00,,,0.00,meteohub,2013-09-05 00:27:00,
2013-09-04 19:32:00,80.6,65.8,29.96,ENE,68,4.0,4.0,61,0.00,,,0.00,meteohub,2013-09-05 00:32:00,
2013-09-04 19:37:00,80.2,66.0,29.96,East,90,2.0,4.0,62,0.00,,,0.00,meteohub,2013-09-05 00:37:00,
2013-09-04 19:43:00,80.1,65.8,29.96,NE,45,3.0,4.0,62,0.00,,,0.00,meteohub,2013-09-05 00:43:00,
2013-09-04 19:48:00,79.7,65.5,29.96,NE,45,4.0,4.0,62,0.00,,,0.00,meteohub,2013-09-05 00:48:00,
2013-09-04 19:53:00,79.3,65.7,29.96,NE,45,5.0,5.0,63,0.00,,,0.00,meteohub,2013-09-05 00:53:00,
2013-09-04 19:58:00,78.8,65.1,29.96,NE,45,4.0,5.0,63,0.00,,,0.00,meteohub,2013-09-05 00:58:00,
2013-09-04 20:03:00,78.4,65.7,29.96,NE,45,4.0,5.0,65,0.00,,,0.00,meteohub,2013-09-05 01:03:00,
2013-09-04 20:08:00,77.9,65.1,29.97,NE,45,4.0,5.0,65,0.00,,,0.00,meteohub,2013-09-05 01:08:00,
2013-09-04 20:13:00,77.5,65.3,29.97,NE,45,5.0,5.0,66,0.00,,,0.00,meteohub,2013-09-05 01:13:00,
2013-09-04 20:18:00,77.2,64.9,29.97,NE,45,7.0,7.0,66,0.00,,,0.00,meteohub,2013-09-05 01:18:00,
2013-09-04 20:24:00,76.8,65.5,29.97,NE,45,7.0,7.0,68,0.00,,,0.00,meteohub,2013-09-05 01:24:00,
2013-09-04 20:29:00,76.6,65.7,29.97,NE,45,7.0,7.0,69,0.00,,,0.00,meteohub,2013-09-05 01:29:00,
2013-09-04 20:34:00,76.3,65.8,29.98,NE,45,7.0,8.0,70,0.00,,,0.00,meteohub,2013-09-05 01:34:00,
2013-09-04 20:39:00,75.9,65.8,29.98,NE,45,6.0,8.0,71,0.00,,,0.00,meteohub,2013-09-05 01:39:00,
2013-09-04 20:44:00,75.6,65.5,29.97,NE,45,5.0,8.0,71,0.00,,,0.00,meteohub,2013-09-05 01:44:00,
2013-09-04 20:49:00,75.6,65.5,29.99,NE,45,4.0,7.0,71,0.00,,,0.00,meteohub,2013-09-05 01:49:00,
2013-09-04 20:54:00,75.2,65.1,29.99,NE,45,4.0,7.0,71,0.00,,,0.00,meteohub,2013-09-05 01:54:00,
2013-09-04 21:02:00,75.0,65.3,29.99,NE,45,4.0,5.0,72,0.00,,,0.00,meteohub,2013-09-05 02:02:00,
2013-09-04 21:10:00,74.7,65.1,29.99,NE,45,6.0,6.0,72,0.00,,,0.00,meteohub,2013-09-05 02:10:00,
2013-09-04 21:15:00,74.5,65.3,29.99,NE,45,6.0,7.0,73,0.00,,,0.00,meteohub,2013-09-05 02:15:00,
2013-09-04 21:20:00,73.9,64.8,29.99,NE,45,4.0,7.0,73,0.00,,,0.00,meteohub,2013-09-05 02:20:00,
2013-09-04 21:25:00,73.6,64.4,29.99,East,90,4.0,7.0,73,0.00,,,0.00,meteohub,2013-09-05 02:25:00,
2013-09-04 21:32:00,73.2,63.7,29.99,NE,45,5.0,7.0,72,0.00,,,0.00,meteohub,2013-09-05 02:32:00,
2013-09-04 21:41:00,72.7,63.5,29.99,NE,45,6.0,7.0,73,0.00,,,0.00,meteohub,2013-09-05 02:41:00,
2013-09-04 21:46:00,72.3,63.1,30.00,NE,45,7.0,7.0,73,0.00,,,0.00,meteohub,2013-09-05 02:46:00,
2013-09-04 21:52:00,72.1,63.3,30.00,East,90,6.0,7.0,74,0.00,,,0.00,meteohub,2013-09-05 02:52:00,
2013-09-04 21:57:00,72.0,63.1,30.00,NE,45,5.0,8.0,74,0.00,,,0.00,meteohub,2013-09-05 02:57:00,
2013-09-04 22:02:00,71.6,63.0,30.00,NE,45,4.0,8.0,74,0.00,,,0.00,meteohub,2013-09-05 03:02:00,
2013-09-04 22:07:00,71.4,63.1,30.00,ENE,68,4.0,7.0,75,0.00,,,0.00,meteohub,2013-09-05 03:07:00,
2013-09-04 22:12:00,71.2,63.0,30.00,ENE,68,4.0,6.0,75,0.00,,,0.00,meteohub,2013-09-05 03:12:00,
2013-09-04 22:17:00,71.4,63.5,30.00,NE,45,5.0,6.0,76,0.00,,,0.00,meteohub,2013-09-05 03:17:00,
2013-09-04 22:23:00,71.6,63.3,30.00,NE,45,6.0,6.0,75,0.00,,,0.00,meteohub,2013-09-05 03:23:00,
2013-09-04 22:28:00,71.6,63.3,30.00,NE,45,6.0,7.0,75,0.00,,,0.00,meteohub,2013-09-05 03:28:00,
2013-09-04 22:33:00,71.4,63.5,30.01,East,90,4.0,8.0,76,0.00,,,0.00,meteohub,2013-09-05 03:33:00,
2013-09-04 22:38:00,71.1,63.1,30.01,East,90,3.0,8.0,76,0.00,,,0.00,meteohub,2013-09-05 03:38:00,
2013-09-04 22:43:00,70.9,63.0,30.02,NE,45,11.0,11.0,76,0.00,,,0.00,meteohub,2013-09-05 03:43:00,
2013-09-04 22:48:00,70.7,62.8,30.02,NE,45,8.0,8.0,76,0.00,,,0.00,meteohub,2013-09-05 03:48:00,
2013-09-04 22:53:00,70.3,62.8,30.01,South,180,13.0,13.0,77,0.00,,,0.00,meteohub,2013-09-05 03:53:00,
2013-09-04 22:58:00,70.3,62.8,30.02,SE,135,13.0,13.0,77,0.00,,,0.00,meteohub,2013-09-05 03:58:00,
2013-09-04 23:01:00,70.3,62.8,30.02,East,90,11.0,15.0,77,0.00,,,0.00,meteohub,2013-09-05 04:01:00,
2013-09-04 23:02:00,70.3,62.8,30.02,East,90,11.0,15.0,77,0.00,,,0.00,meteohub,2013-09-05 04:02:00,
2013-09-04 23:07:00,70.3,62.8,30.02,East,90,11.0,15.0,77,0.00,,,0.00,meteohub,2013-09-05 04:07:00,
2013-09-04 23:12:00,69.6,62.4,30.02,NE,45,11.0,15.0,78,0.00,,,0.00,meteohub,2013-09-05 04:12:00,
2013-09-04 23:17:00,69.4,62.2,30.02,East,90,11.0,12.0,78,0.00,,,0.00,meteohub,2013-09-05 04:17:00,
2013-09-04 23:19:00,69.3,61.7,30.02,East,90,10.0,12.0,77,0.00,,,0.00,meteohub,2013-09-05 04:19:00,
2013-09-04 23:24:00,69.1,61.5,30.02,East,90,9.0,12.0,77,0.00,,,0.00,meteohub,2013-09-05 04:24:00,
2013-09-04 23:29:00,68.9,61.0,30.02,East,90,11.0,12.0,76,0.00,,,0.00,meteohub,2013-09-05 04:29:00,
2013-09-04 23:35:00,68.9,61.0,30.02,ENE,68,11.0,13.0,76,0.00,,,0.00,meteohub,2013-09-05 04:35:00,
2013-09-04 23:40:00,68.7,60.4,30.03,East,90,9.0,13.0,75,0.00,,,0.00,meteohub,2013-09-05 04:40:00,
2013-09-04 23:45:00,68.5,60.3,30.02,East,90,8.0,11.0,75,0.00,,,0.00,meteohub,2013-09-05 04:45:00,
2013-09-04 23:50:00,68.4,60.1,30.02,East,90,8.0,11.0,75,0.00,,,0.00,meteohub,2013-09-05 04:50:00,
2013-09-04 23:55:00,68.2,59.9,30.03,East,90,9.0,11.0,75,0.00,,,0.00,meteohub,2013-09-05 04:55:00,